Regional Weather Roundup
Issued by NWS Little Rock, AR

Home | Current Version | Previous Version | Graphics & Text | Print | Product List | Glossary On
Versions: 1 2 3 4 5 6 7 8 9 10 11 12 13 14 15 16 17 18 19 20 21 22 23 24 25 26 27 28 29 30 31 32 33 34 35 36 37 38 39 40 41 42 43 44 45 46 47 48 49 50
000
ASUS44 KLZK 010205
RWRLZK

WEATHER ROUNDUP FOR ARKANSAS
NATIONAL WEATHER SERVICE LITTLE ROCK AR
900 PM CDT TUE MAY 31 2016

NOTE: "FAIR" INDICATES FEW OR NO CLOUDS BELOW 12,000 FEET WITH NO
SIGNIFICANT WEATHER AND/OR OBSTRUCTIONS TO VISIBILITY.

ARZ001-003-010-029-010300-
NORTHWEST ARKANSAS

CITY           SKY/WX    TMP DP  RH WIND       PRES   REMARKS
FAYETTEVILLE   CLOUDY    69  69 100 CALM      29.92S
FORT SMITH     CLOUDY    74  68  81 CALM      29.88F
HARRISON       CLOUDY    73  67  81 CALM      29.94R
BENTONVILLE    CLOUDY    72  64  78 SW3       29.92F
ROGERS           N/A     71  67  87 SW6       29.93F
SILOAM SPGS    CLOUDY    70  61  73 CALM      29.93F
HIGHFILL       MOCLDY    72  69  90 S3        29.92S
SPRINGDALE     PTCLDY    72  66  83 S7        29.94F
$$

ARZ004-005-016-010300-
NORTH CENTRAL ARKANSAS

CITY           SKY/WX    TMP DP  RH WIND       PRES   REMARKS
BATESVILLE     PTCLDY    72  70  94 CALM      29.91R
FLIPPIN        CLOUDY   N/A N/A N/A CALM      29.89R
MTN HOME       MOCLDY    73  67  81 SW3       29.92R
$$

ARZ040-041-010300-
WEST CENTRAL ARKANSAS

CITY           SKY/WX    TMP DP  RH WIND       PRES   REMARKS
MENA           CLOUDY    70  68  94 W3        29.92S
MOUNT IDA      CLOUDY    73  67  81 VRB3      29.88S
$$

ARZ009-017-025-026-028-010300-
NORTHEAST ARKANSAS

CITY           SKY/WX    TMP DP  RH WIND       PRES   REMARKS
CORNING          N/A     77  70  78 CALM      29.91S
JONESBORO      CLEAR     75  71  87 CALM      29.90R
NEWPORT        PTCLDY    78  71  79 CALM      29.91S
WALNUT RIDGE   PTCLDY    77  66  69 W6        29.90S
BLYTHEVILLE    CLEAR     79  67  66 CALM      29.91R
$$

ARZ022-023-033-042-044-010300-
CENTRAL ARKANSAS

CITY           SKY/WX    TMP DP  RH WIND       PRES   REMARKS
LITTLE ROCK    CLOUDY    79  70  74 CALM      29.89R
N LITTLE ROCK    N/A     73  70  88 CALM      29.88R
SEARCY         PTCLDY    73  71  93 CALM      29.91S
HOT SPRINGS    MOCLDY    76  69  79 CALM      29.89R
RUSSELLVILLE   CLOUDY    73  71  93 CALM      29.89R
CLINTON        FAIR      73  72  94 CALM      29.91R
$$

ARZ036-010300-
EAST ARKANSAS

CITY           SKY/WX    TMP DP  RH WIND       PRES   REMARKS
WEST MEMPHIS   CLEAR     74  70  87 CALM      29.89R
$$

ARZ050-053-066-070-073-010300-
SOUTHWEST ARKANSAS

CITY           SKY/WX    TMP DP  RH WIND       PRES   REMARKS
ARKADELPHIA    FAIR      76  70  82 W7        29.88R
CAMDEN         CLOUDY    75  72  88 CALM      29.87S
TEXARKANA      LGT RAIN  69  66  90 W7        29.89F
EL DORADO        N/A     75  73  93 CALM      29.88R
DE QUEEN       CLOUDY    68  67  96 NW3       29.88F
$$

ARZ056-057-069-010300-
SOUTHEAST ARKANSAS

CITY           SKY/WX    TMP DP  RH WIND       PRES   REMARKS
PINE BLUFF     CLOUDY    77  74  90 E3        29.88R
STUTTGART      MOCLDY    79  70  73 NE5       29.89S
MONTICELLO     CLOUDY    78  75  90 CALM      29.88R

$$





USA.gov is the U.S. government's official web portal to all federal, state and local government web resources and services.